Voltar ao catálogo

STARLINK-36598

AtivoComunicaçõesVLEO
NORAD 67844·PAYLOAD·🇺🇸 United States

Lançado Feb 16, 2026 de Vandenberg Space Force Base

Loading…

Próximas Passagens (próximas 24 horas)

TLE

AtualizadoSource: CelesTrak SupGP

Época: Sep 14, 2026, 23:18 UTC

1 67844C 26033Z   26257.97131944  .00028112  00000+0  10184-2 0  2579
2 67844  42.9996 278.4770 0001456 263.5299 244.3803 15.27558527    19

Acompanhe STARLINK-36598 em tempo real com AllMySat

Download on the App Store